GW1938 Weather Reports


time (UTC)temp
C
wind
direction
speed
KPH
gust
KPH
rain 1hr
cm
rain 24hr
cm
rain mn
cm
humidity
%
barometer
mb
20260505063643 18 205 8.0 9.7 0.00 0.81 0.58 58 1015.9
20260505063140 18 212 6.4 9.7 0.00 0.81 0.58 56 1016.0
20260505062639 18 200 6.4 9.7 0.00 0.81 0.58 57 1015.8
20260505061633 18 208 9.7 14.5 0.00 0.81 0.58 56 1015.6
20260505061131 18 200 9.7 12.9 0.00 0.81 0.58 56 1015.6
20260505055624 19 212 4.8 8.0 0.00 0.81 0.58 51 1015.8
20260505055123 20 206 3.2 6.4 0.00 0.81 0.58 48 1015.8
20260505054622 20 222 6.4 9.7 0.00 0.81 0.58 49 1015.7
20260505054118 20 232 6.4 12.9 0.00 0.81 0.58 49 1015.7
20260505053114 20 233 8.0 12.9 0.00 0.81 0.58 47 1015.7
20260505052612 20 248 4.8 9.7 0.00 0.81 0.58 48 1015.7
20260505052111 20 234 6.4 11.3 0.00 0.81 0.58 49 1015.6
20260505051105 19 297 3.2 8.0 0.00 0.81 0.58 50 1015.4
20260505050604 19 274 8.0 14.5 0.00 0.81 0.58 48 1015.4
20260505041546 20 306 6.4 11.3 0.00 0.81 0.58 57 1015.6
20260505041044 20 304 6.4 12.9 0.00 0.81 0.58 55 1015.5
20260505040039 20 298 4.8 9.7 0.00 0.81 0.58 55 1015.2
20260505035537 20 277 6.4 12.9 0.00 0.81 0.58 52 1015.3
20260505035034 20 303 4.8 8.0 0.00 0.81 0.58 55 1015.2
20260505034534 19 278 8.0 12.9 0.00 0.81 0.58 52 1015.3
20260505034032 19 294 4.8 11.3 0.00 0.81 0.58 54 1015.3
20260505033530 19 301 4.8 11.3 0.00 0.81 0.58 54 1015.4
20260505033028 19 308 9.7 12.9 0.00 0.81 0.58 59 1015.5
20260505032527 19 303 6.4 12.9 0.00 0.81 0.58 58 1015.5
20260505032026 19 316 4.8 11.3 0.00 0.81 0.58 60 1015.7
20260505031525 19 310 6.4 11.3 0.00 0.81 0.58 57 1015.7
20260505031023 19 310 8.0 14.5 0.00 0.81 0.58 63 1015.8
20260505025516 18 271 8.0 16.1 0.00 0.81 0.58 63 1015.9
20260505025014 18 287 6.4 12.9 0.00 0.81 0.58 66 1016.0
20260505024009 18 267 9.7 16.1 0.00 0.81 0.58 67 1016.1
20260505023507 18 278 6.4 12.9 0.00 0.81 0.58 68 1016.1
20260505023005 18 275 6.4 12.9 0.00 0.81 0.58 64 1016.2
20260505022504 19 266 8.0 14.5 0.00 0.81 0.58 61 1016.2
20260505022002 19 274 6.4 12.9 0.00 0.81 0.58 52 1016.4
20260505021459 19 261 6.4 14.5 0.00 0.81 0.58 50 1016.4
20260505020956 19 241 9.7 16.1 0.00 0.81 0.58 46 1016.5
20260505020454 19 238 9.7 17.7 0.00 0.81 0.58 46 1016.4
20260505015953 18 256 12.9 17.7 0.00 0.81 0.58 46 1016.5
20260505015452 19 263 12.9 22.5 0.00 0.81 0.58 47 1016.5
20260505014950 19 270 8.0 14.5 0.00 0.81 0.58 53 1016.5
20260505014448 19 283 8.0 16.1 0.00 0.81 0.58 53 1016.6
20260505012940 19 254 11.3 20.9 0.00 0.81 0.58 48 1016.8
20260505012439 19 254 8.0 17.7 0.00 0.81 0.58 54 1016.8
20260505011938 19 260 12.9 19.3 0.00 0.81 0.58 51 1017.1
20260505011437 19 246 9.7 16.1 0.00 0.81 0.58 55 1017.1
20260505010934 19 245 8.0 19.3 0.00 0.81 0.58 57 1017.0
20260505010432 18 246 8.0 17.7 0.00 0.81 0.58 55 1017.1
20260505004921 18 238 12.9 24.1 0.00 0.81 0.58 52 1017.2
20260505004418 18 239 9.7 17.7 0.00 0.81 0.58 53 1017.2
20260505003917 18 230 11.3 17.7 0.00 0.81 0.58 52 1017.2
20260505003414 18 237 11.3 17.7 0.00 0.81 0.58 54 1017.3
20260505002912 19 218 8.0 12.9 0.00 0.81 0.58 54 1017.3
20260505001906 18 224 9.7 19.3 0.00 0.81 0.58 53 1017.5
20260505001401 18 224 11.3 22.5 0.00 0.81 0.58 51 1017.5
20260505000859 18 227 14.5 22.5 0.00 0.81 0.58 51 1017.4
20260505000358 18 229 12.9 19.3 0.00 0.81 0.58 54 1017.4
20260504235854 18 216 11.3 24.1 0.00 0.81 0.58 52 1017.3
20260504235352 18 223 14.5 25.7 0.00 0.81 0.58 50 1017.3
20260504234347 18 217 12.9 25.7 0.00 0.81 0.58 52 1017.2
20260504232336 17 222 16.1 25.7 0.00 0.81 0.58 54 1017.3
20260504231835 17 228 17.7 29.0 0.00 0.81 0.58 56 1017.4
20260504231332 17 226 14.5 22.5 0.00 0.81 0.58 61 1017.5
20260504230829 17 226 12.9 20.9 0.00 0.81 0.58 61 1017.5
20260504230326 17 223 17.7 32.2 0.00 0.81 0.58 60 1017.4
20260504225321 17 223 16.1 29.0 0.00 0.81 0.58 63 1017.4
20260504224819 17 220 16.1 29.0 0.00 0.81 0.58 64 1017.3
20260504222807 17 221 12.9 22.5 0.00 0.81 0.58 80 1016.9
20260504222306 17 226 14.5 24.1 0.00 0.81 0.58 84 1016.9
20260504221805 17 235 14.5 22.5 0.00 0.81 0.58 88 1016.9
20260504220800 17 231 17.7 25.7 0.00 0.81 0.58 89 1016.6
20260504220258 17 238 14.5 20.9 0.00 0.81 0.58 92 1016.5
20260504215756 17 236 14.5 25.7 0.00 0.81 0.58 91 1016.4
20260504215255 17 237 16.1 27.4 0.00 0.81 0.58 92 1016.2
20260504214753 17 236 14.5 25.7 0.00 0.81 0.58 95 1016.1
20260504214252 17 234 11.3 19.3 0.00 0.81 0.58 97 1016.0
20260504212743 17 239 11.3 20.9 0.00 0.81 0.58 99 1015.8
20260504212242 17 239 14.5 20.9 0.00 0.81 0.58 99 1015.8
20260504211740 17 235 12.9 22.5 0.00 0.81 0.58 100 1015.6
20260504211238 17 235 14.5 24.1 0.00 0.81 0.58 100 1015.5
20260504205729 17 241 11.3 17.7 0.00 0.81 0.58 100 1015.5
20260504205226 17 241 12.9 20.9 0.00 0.81 0.58 100 1015.6
20260504204724 17 234 12.9 19.3 0.00 0.81 0.58 100 1015.6
20260504204222 17 240 12.9 19.3 0.00 0.81 0.58 100 1015.5
20260504203720 17 244 12.9 24.1 0.00 0.81 0.58 100 1015.3
20260504202213 17 235 9.7 16.1 0.00 0.81 0.58 100 1015.1
20260504201710 17 241 11.3 20.9 0.00 0.81 0.58 100 1015.0
20260504201209 17 250 12.9 20.9 0.00 0.81 0.58 100 1015.0
20260504200708 17 240 14.5 24.1 0.00 0.81 0.58 100 1014.9
20260504200207 17 243 16.1 32.2 0.00 0.81 0.58 100 1014.7
20260504195704 17 250 16.1 25.7 0.03 0.81 0.58 100 1014.8
20260504195203 17 251 17.7 30.6 0.03 0.81 0.58 100 1014.8
20260504194701 17 251 17.7 29.0 0.03 0.81 0.58 100 1014.7
20260504194159 17 247 12.9 27.4 0.03 0.81 0.58 100 1014.6
20260504193657 17 255 16.1 29.0 0.03 0.81 0.58 100 1014.6
20260504193156 17 250 17.7 30.6 0.03 0.81 0.58 100 1014.3
20260504192653 17 257 17.7 29.0 0.03 0.81 0.58 100 1014.1
20260504192152 17 262 17.7 30.6 0.03 0.81 0.58 100 1014.1
20260504191651 17 264 12.9 33.8 0.03 0.81 0.58 100 1014.0
20260504191149 17 267 14.5 27.4 0.03 0.81 0.58 100 1014.0
20260504190647 17 270 14.5 29.0 0.03 0.81 0.58 100 1014.1
20260504185642 17 264 11.3 25.7 0.00 0.79 0.56 100 1013.9
20260504185141 17 265 11.3 19.3 0.00 0.79 0.56 100 1013.9
20260504184640 17 263 9.7 19.3 0.00 0.79 0.56 100 1013.9
20260504184139 17 261 12.9 19.3 0.00 0.79 0.56 100 1013.9
20260504183638 17 274 9.7 16.1 0.00 0.79 0.56 100 1014.0
20260504183136 17 267 9.7 17.7 0.00 0.79 0.56 100 1013.9
20260504182635 17 268 9.7 19.3 0.00 0.79 0.56 100 1013.9
20260504182134 17 254 12.9 19.3 0.00 0.79 0.56 100 1013.8
20260504181632 17 254 11.3 19.3 0.00 0.79 0.56 100 1013.8
20260504180123 17 252 14.5 20.9 0.03 0.79 0.56 100 1013.8
20260504175621 17 247 14.5 24.1 0.03 0.79 0.56 100 1014.0
20260504175118 17 258 12.9 19.3 0.03 0.79 0.56 100 1014.0
20260504174113 17 258 12.9 19.3 0.05 0.79 0.56 100 1013.9
20260504173612 17 242 9.7 16.1 0.10 0.79 0.56 100 1013.8
20260504172607 17 236 8.0 12.9 0.23 0.79 0.56 100 1013.8
20260504171602 17 263 9.7 12.9 0.33 0.79 0.56 100 1014.0
20260504170558 17 266 8.0 11.3 0.36 0.79 0.56 100 1014.0
20260504151011 18 267 9.7 16.1 0.00 0.23 0.00 100 1013.8
20260504150508 18 266 9.7 16.1 0.00 0.23 0.00 100 1013.8
20260504140949 18 241 8.0 11.3 0.03 0.23 0.00 100 1013.6
20260504140447 18 255 11.3 16.1 0.03 0.23 0.00 100 1013.9
20260504130413 19 319 4.8 6.4 0.00 0.23 0.23 100 1014.0
20260504110323 19 205 6.4 8.0 0.08 0.20 0.20 100 1015.2
20260504100300 20 263 6.4 9.7 0.10 0.13 0.13 97 1015.2
20260504081213 21 9 11.3 16.1 0.00 0.00 0.00 89 1014.1
20260504080712 21 13 11.3 16.1 0.00 0.00 0.00 89 1014.0
20260504080211 21 15 11.3 16.1 0.00 0.00 0.00 89 1014.0
20260504070146 21 50 16.1 22.5 0.00 0.00 0.00 89 1013.4